FW3233 Weather Reports


Display with metric or nautical units.
time (UTC)temp
F
wind
direction
speed
MPH
gust
MPH
rain 1hr
in
rain 24hr
in
rain mn
in
humidity
%
barometer
mb
20260505004003 73 196 1.0 1.0 0.00 0.00 0.00 57 1008.0
20260505003500 73 186 0.0 2.0 0.00 0.00 0.00 56 1008.1
20260505002956 73 199 1.0 1.0 0.00 0.00 0.00 56 1008.2
20260505002452 74 209 0.0 1.0 0.00 0.00 0.00 56 1008.3
20260505001951 74 190 1.0 2.0 0.00 0.00 0.00 55 1008.3
20260505001448 75 188 0.0 2.0 0.00 0.00 0.00 55 1008.2
20260505000945 75 188 0.0 2.0 0.00 0.00 0.00 55 1008.3
20260505000443 75 186 2.0 2.0 0.00 0.00 0.00 54 1008.3
20260504235940 75 216 1.0 3.0 0.00 0.00 0.00 53 1008.3
20260504235437 75 184 0.0 2.0 0.00 0.00 0.00 53 1008.5
20260504234933 76 189 1.0 2.0 0.00 0.00 0.00 54 1008.4
20260504234431 76 188 0.0 2.0 0.00 0.00 0.00 53 1008.5
20260504233927 76 185 0.0 2.0 0.00 0.00 0.00 52 1008.3
20260504233423 76 189 1.0 2.0 0.00 0.00 0.00 52 1008.4
20260504232920 76 163 1.0 2.0 0.00 0.00 0.00 52 1008.5
20260504232417 77 196 0.0 2.0 0.00 0.00 0.00 52 1008.6
20260504231914 77 203 1.0 6.0 0.00 0.00 0.00 51 1008.7
20260504231410 77 179 0.0 2.0 0.00 0.00 0.00 51 1008.8
20260504230907 77 177 1.0 1.0 0.00 0.00 0.00 51 1008.8
20260504230404 77 175 0.0 2.0 0.00 0.00 0.00 51 1008.9
20260504225903 77 194 0.0 2.0 0.00 0.00 0.00 50 1009.1
20260504225359 78 162 1.0 2.0 0.00 0.00 0.00 50 1008.9
20260504224857 78 202 0.0 2.0 0.00 0.00 0.00 49 1009.0
20260504224353 78 184 2.0 4.0 0.00 0.00 0.00 47 1008.9
20260504223850 78 170 2.0 6.0 0.00 0.00 0.00 48 1008.9
20260504223345 79 182 4.0 6.0 0.00 0.00 0.00 46 1008.9
20260504222842 79 178 5.0 7.0 0.00 0.00 0.00 47 1008.8
20260504222339 78 188 0.0 4.0 0.00 0.00 0.00 48 1008.9
20260504221837 78 168 2.0 9.0 0.00 0.00 0.00 47 1009.1
20260504221334 78 205 2.0 3.0 0.00 0.00 0.00 48 1009.1
20260504220831 78 197 1.0 3.0 0.00 0.00 0.00 48 1009.0
20260504220327 79 184 3.0 4.0 0.00 0.00 0.00 47 1009.0
20260504215825 79 169 2.0 3.0 0.00 0.00 0.00 47 1009.2
20260504215321 78 150 4.0 6.0 0.00 0.00 0.00 48 1009.4
20260504214817 78 181 0.0 1.0 0.00 0.00 0.00 49 1009.3
20260504214314 78 196 1.0 4.0 0.00 0.00 0.00 48 1009.3
20260504213811 79 162 2.0 4.0 0.00 0.00 0.00 48 1009.3
20260504213307 79 176 2.0 7.0 0.00 0.00 0.00 48 1009.2
20260504212804 79 164 3.0 4.0 0.00 0.00 0.00 47 1009.2
20260504212300 80 188 1.0 2.0 0.00 0.00 0.00 48 1009.5
20260504211758 80 184 0.0 2.0 0.00 0.00 0.00 47 1009.6
20260504211254 79 201 1.0 4.0 0.00 0.00 0.00 47 1009.6
20260504210752 79 203 2.0 3.0 0.00 0.00 0.00 47 1009.5
20260504210249 80 195 6.0 9.0 0.00 0.00 0.00 45 1009.6
20260504205746 80 184 3.0 8.0 0.00 0.00 0.00 45 1009.7
20260504205243 80 216 2.0 3.0 0.00 0.00 0.00 47 1009.5
20260504204741 79 199 2.0 10.0 0.00 0.00 0.00 46 1009.6
20260504204239 80 181 2.0 7.0 0.00 0.00 0.00 46 1009.7
20260504203738 80 179 3.0 7.0 0.00 0.00 0.00 46 1009.8
20260504203235 79 119 2.0 3.0 0.00 0.00 0.00 47 1010.2
20260504202735 79 209 1.0 3.0 0.00 0.00 0.00 48 1010.0
20260504202233 79 226 3.0 10.0 0.00 0.00 0.00 47 1010.0
20260504201730 79 152 5.0 6.0 0.00 0.00 0.00 45 1010.3
20260504201227 79 191 5.0 9.0 0.00 0.00 0.00 44 1010.4
20260504200725 79 220 1.0 2.0 0.00 0.00 0.00 50 1010.3
20260504200220 79 219 1.0 2.0 0.00 0.00 0.00 48 1010.6
20260504195717 80 197 3.0 8.0 0.00 0.00 0.00 45 1010.6
20260504195213 80 167 0.0 2.0 0.00 0.00 0.00 47 1010.8
20260504194710 79 224 6.0 9.0 0.00 0.00 0.00 46 1010.9
20260504194206 79 176 2.0 7.0 0.00 0.00 0.00 48 1011.0
20260504193703 80 197 2.0 7.0 0.00 0.00 0.00 45 1011.0
20260504193200 80 173 2.0 6.0 0.00 0.00 0.00 46 1011.0
20260504192659 80 223 2.0 3.0 0.00 0.00 0.00 46 1011.1
20260504192156 80 232 2.0 6.0 0.00 0.00 0.00 46 1011.0
20260504191655 79 209 0.0 4.0 0.00 0.00 0.00 47 1011.2
20260504191150 79 183 2.0 4.0 0.00 0.00 0.00 45 1011.2
20260504190646 79 187 6.0 9.0 0.00 0.00 0.00 44 1011.3
20260504190143 79 186 2.0 3.0 0.00 0.00 0.00 45 1011.2
20260504185639 79 190 1.0 4.0 0.00 0.00 0.00 47 1011.6
20260504185136 78 200 4.0 10.0 0.00 0.00 0.00 46 1011.2
20260504184632 79 173 4.0 4.0 0.00 0.00 0.00 46 1011.4
20260504184127 79 180 1.0 3.0 0.00 0.00 0.00 48 1011.4
20260504183625 79 174 5.0 10.0 0.00 0.00 0.00 45 1011.5
20260504183122 79 218 3.0 8.0 0.00 0.00 0.00 45 1011.5
20260504182620 80 180 1.0 4.0 0.00 0.00 0.00 47 1011.7
20260504182117 79 207 3.0 7.0 0.00 0.00 0.00 44 1011.6
20260504181614 80 185 2.0 4.0 0.00 0.00 0.00 44 1011.6
20260504181112 79 161 1.0 4.0 0.00 0.00 0.00 46 1011.8
20260504180611 79 153 3.0 6.0 0.00 0.00 0.00 45 1011.7
20260504180109 78 243 2.0 3.0 0.00 0.00 0.00 51 1011.8
20260504175606 79 180 2.0 4.0 0.00 0.00 0.00 46 1011.9
20260504175103 78 155 2.0 4.0 0.00 0.00 0.00 46 1012.0
20260504174601 79 186 2.0 2.0 0.00 0.00 0.00 46 1012.0
20260504174057 78 166 2.0 3.0 0.00 0.00 0.00 47 1012.3
20260504173554 78 199 1.0 7.0 0.00 0.00 0.00 46 1012.3
20260504173052 78 201 2.0 6.0 0.00 0.00 0.00 45 1012.6
20260504172547 79 183 3.0 7.0 0.00 0.00 0.00 45 1012.6
20260504172044 78 182 0.0 2.0 0.00 0.00 0.00 47 1012.5
20260504171541 78 204 3.0 6.0 0.00 0.00 0.00 46 1012.6
20260504171038 77 197 5.0 6.0 0.00 0.00 0.00 47 1012.6
20260504170534 77 181 4.0 10.0 0.00 0.00 0.00 48 1012.7
20260504150918 74 198 2.0 2.0 0.00 0.00 0.00 56 1013.6
20260504150415 71 171 2.0 3.0 0.00 0.00 0.00 61 1013.4
20260504140841 66 167 1.0 1.0 0.00 0.00 0.00 71 1014.0
20260504140337 66 167 1.0 1.0 0.00 0.00 0.00 71 1014.0
20260504130800 62 202 2.0 3.0 0.00 0.00 0.00 78 1013.7
20260504130256 61 200 2.0 2.0 0.00 0.00 0.00 80 1013.6
20260504120220 60 182 1.0 2.0 0.00 0.00 0.00 81 1013.4
20260504110647 57 171 1.0 2.0 0.00 0.00 0.00 85 1013.0
20260504110143 58 176 0.0 0.0 0.00 0.00 0.00 86 1013.1
20260504100609 57 182 0.0 0.0 0.00 0.00 0.00 86 1013.1
20260504100108 57 183 0.0 0.0 0.00 0.00 0.00 87 1013.2
20260504082003 59 179 0.0 0.0 0.00 0.00 0.00 83 1013.5
20260504081500 59 179 0.0 0.0 0.00 0.00 0.00 83 1013.6
20260504080955 60 179 0.0 0.0 0.00 0.00 0.00 81 1013.5
20260504080452 60 179 0.0 0.0 0.00 0.00 0.00 80 1013.7
20260504050253 64 183 0.0 1.0 0.00 0.00 0.00 71 1014.5
20260504045750 64 184 0.0 1.0 0.00 0.00 0.00 71 1014.5
20260504045244 64 192 0.0 2.0 0.00 0.00 0.00 70 1014.6
20260504044742 65 182 1.0 1.0 0.00 0.00 0.00 70 1014.5
20260504044240 65 176 1.0 1.0 0.00 0.00 0.00 70 1014.5
20260504043736 64 187 1.0 2.0 0.00 0.00 0.00 70 1014.8
20260504043233 64 182 0.0 0.0 0.00 0.00 0.00 71 1014.7
20260504042731 64 180 0.0 0.0 0.00 0.00 0.00 70 1014.6
20260504042227 65 189 0.0 1.0 0.00 0.00 0.00 70 1014.7
20260504041724 65 182 0.0 1.0 0.00 0.00 0.00 70 1014.8
20260504041220 65 185 1.0 2.0 0.00 0.00 0.00 69 1014.9
20260504040717 65 173 0.0 2.0 0.00 0.00 0.00 69 1014.8
20260504040214 65 190 0.0 0.0 0.00 0.00 0.00 69 1014.7
20260504035710 65 181 0.0 0.0 0.00 0.00 0.00 68 1014.8
20260504035208 65 187 0.0 0.0 0.00 0.00 0.00 69 1015.0
20260504034704 65 191 0.0 0.0 0.00 0.00 0.00 69 1014.9
20260504034201 65 178 0.0 1.0 0.00 0.00 0.00 68 1015.0
20260504033659 65 192 0.0 1.0 0.00 0.00 0.00 68 1015.0
20260504033156 65 178 1.0 1.0 0.00 0.00 0.00 68 1015.0
20260504032653 66 188 0.0 2.0 0.00 0.00 0.00 68 1015.0
20260504032150 66 187 0.0 2.0 0.00 0.00 0.00 67 1014.8
20260504031648 66 171 1.0 1.0 0.00 0.00 0.00 67 1014.8
20260504031144 66 180 0.0 1.0 0.00 0.00 0.00 67 1014.9
20260504030640 66 189 0.0 0.0 0.00 0.00 0.00 67 1014.9
20260504030138 66 185 0.0 1.0 0.00 0.00 0.00 66 1014.7
20260504025634 66 192 0.0 0.0 0.00 0.00 0.00 67 1014.9
20260504025131 66 191 0.0 0.0 0.00 0.00 0.00 66 1014.8
20260504024628 66 183 0.0 1.0 0.00 0.00 0.00 67 1014.9
20260504024125 66 199 0.0 0.0 0.00 0.00 0.00 65 1014.8
20260504023621 67 200 0.0 1.0 0.00 0.00 0.00 66 1014.7
20260504023118 67 183 0.0 0.0 0.00 0.00 0.00 65 1014.6
20260504022614 67 185 0.0 2.0 0.00 0.00 0.00 64 1014.6
20260504022110 67 192 1.0 2.0 0.00 0.00 0.00 63 1014.7
20260504021608 67 177 0.0 2.0 0.00 0.00 0.00 64 1014.6
20260504021104 67 174 0.0 1.0 0.00 0.00 0.00 64 1014.6
20260504020602 67 175 0.0 1.0 0.00 0.00 0.00 63 1014.6
20260504020057 68 179 0.0 1.0 0.00 0.00 0.00 63 1014.6
20260504015554 68 180 0.0 0.0 0.00 0.00 0.00 63 1014.6
20260504015050 68 186 0.0 1.0 0.00 0.00 0.00 63 1014.5
20260504014547 68 186 0.0 0.0 0.00 0.00 0.00 62 1014.6
20260504014044 68 186 0.0 0.0 0.00 0.00 0.00 62 1014.6
20260504013541 69 186 0.0 0.0 0.00 0.00 0.00 60 1014.4
20260504013038 69 186 0.0 1.0 0.00 0.00 0.00 60 1014.6
20260504012536 69 182 0.0 0.0 0.00 0.00 0.00 59 1014.4
20260504012033 70 192 0.0 1.0 0.00 0.00 0.00 58 1014.3
20260504011530 70 179 0.0 1.0 0.00 0.00 0.00 58 1014.3
20260504011026 70 177 0.0 0.0 0.00 0.00 0.00 57 1014.7
20260504010522 70 181 0.0 1.0 0.00 0.00 0.00 56 1014.4
20260504010018 71 184 0.0 1.0 0.00 0.00 0.00 56 1014.6
20260504005515 71 183 0.0 0.0 0.00 0.00 0.00 55 1014.3
20260504005012 71 179 0.0 0.0 0.00 0.00 0.00 54 1014.4
20260504004510 72 180 0.0 1.0 0.00 0.00 0.00 54 1014.3